Pagina principale
METAR-TAF:

METAR-TAF

Aeroporti :

Monte Cimone, Italia

latitudine: 44-12N, longitudine: 010-42E, altezza: 2165 m

Osservazione

Il bollettino è stato emesso 37 minuti fa, alle 19:55 UTC
Vento 6 kt da nord/nord-ovest
Temperature 10°C
Umidità 76%
Pressione 1015 hPa
Visibilità 10 km o più
nessuna nube inferiore a 1500 m e nessun cumulonembo

METAR: LIVC 251955Z 34006KT CAVOK 10/06 Q1015 RMK SKC MON LIB VAL NIL VIS MIN 9999

Ora: 22:32 (20:32 UTC)


TAF: mancante

Osservazioni e previsioni meteorologiche di più di 4000 aeroporti (messaggi METAR e TAF).

Le stazioni disponibili sono rappresentate dai dischi gialli e rossi sulla carta.

Puntare il mouse per vedere il nome della stazione.

Clicca sopra per visualizzare le osservazioni e previsioni meteorologiche.

Per cambiare la mappa : fare clic sui pulsanti verdi con una croce nera per ingrandire, il pulsante verde con un trattino per diminuire, o sulla freccia verde per le mappe adiacenti.


METAR-TAF: